[[{"header":{"parameterUnit":"m.s-1","parameterCategory":1,"la1":30.2991,"la2":30.254,"lo1":-89.0895,"lo2":-89.0444,"dy":0.0017,"dx":0.0017,"nx":28,"ny":28,"refTime":"2024-09-03T03:00:00:Z","depth":0,"parameterNumber":2,"parameterNumberName":"U-component_of_WINDS"},"data":[0,0,0,0,0,0,0,0,0,0,0,0,0,0,0,0,0,0,0,0,0,0,0,0,0,0,0,0,0,0,0,0,0,0,0,0,0,0,0,0,0,0,0,0,0,0,0,0,0,0,0,0,0,0,0,0,0,0,-8.0996,-8.0996,0,-8.1017,-8.1018,-8.1018,-8.0837,-8.0832,-8.0827,-8.0822,-8.0843,-8.0848,-8.0853,0,0,0,0,0,0,0,0,0,0,0,0,0,-8.0799,-8.0803,-8.0996,-8.0996,-8.0996,-8.1017,-8.1018,-8.1018,-8.0838,-8.0832,-8.0826,-8.082,-8.0841,-8.0847,-8.0853,0,0,0,0,0,0,0,0,0,0,0,0,0,-8.0859,-8.0805,-8.0996,-8.0909,-8.0902,-8.1017,-8.1018,-8.1018,-8.0839,-8.0832,-8.0824,-8.0817,-8.0839,-8.0846,-8.0854,-8.1053,0,0,-8.0878,-8.0881,0,0,0,0,0,0,0,0,-8.0856,-8.0866,-8.0922,-8.0915,-8.0907,-8.0917,-8.0955,-8.103,-8.0841,-8.0863,-8.0822,-8.0813,-8.0873,-8.0878,-8.0898,-8.1054,-8.1055,-8.0879,-8.0883,-8.0887,-8.0889,0,0,0,0,0,0,0,-8.0852,-8.0864,-8.1004,-8.0923,-8.0914,-8.0869,-8.0869,-8.0969,-8.091,-8.086,-8.0847,-8.0852,-8.0868,-8.0891,-8.0897,-8.1055,-8.0879,-8.0885,-8.089,-8.0893,-8.1377,-8.1385,0,0,0,0,0,0,-8.0859,-8.0862,-8.1003,-8.1005,-8.0862,-8.0879,-8.0879,-8.0921,-8.0908,-8.0899,-8.0859,-8.0844,-8.0881,-8.0888,-8.0897,-8.1129,-8.0887,-8.0894,-8.0899,-8.1369,-8.1379,-8.1388,0,0,0,0,0,0,-8.0856,-8.0874,-8.1003,-8.093,-8.0943,-8.089,-8.0939,-8.0926,-8.0949,-8.0907,-8.0896,-8.0893,-8.0876,-8.0886,-8.1016,-8.1128,-8.0898,-8.0905,-8.136,-8.1372,-8.1383,-8.1596,0,0,0,0,0,0,-8.0851,-8.0874,-8.0948,-8.0933,-8.0948,-8.1122,-8.0946,-8.0932,-8.0963,-8.0944,-8.0937,-8.0928,-8.0871,-8.1006,-8.1024,-8.1134,-8.0911,-8.1349,-8.1365,-8.138,-8.1579,-8.1614,-8.1644,0,0,0,0,0,-8.0845,-8.1007,-8.0953,-8.0971,-8.104,-8.1128,-8.1137,-8.1067,-8.0973,-8.1047,-8.1021,-8.0928,-8.1114,-8.102,-8.104,-8.1154,-8.1342,-8.1361,-8.1378,-8.1564,-8.1607,-8.1643,0,0,0,0,0,0,-8.1035,-8.1003,-8.0943,-8.1105,-8.1121,-8.1098,-8.1189,-8.1115,-8.1157,-8.1137,-8.105,-8.105,-8.1194,-8.1187,-8.1084,-8.1347,-8.1211,-8.1234,-8.1345,-8.1386,-8.1418,-8.1415,-8.0917,0,0,0,0,0,-8.1096,-8.1171,-8.1139,-8.1285,-8.1296,-8.1243,-8.1278,-8.1224,-8.1237,-8.1242,-8.1225,-8.1241,-8.1302,-8.1344,-8.1398,-8.1578,-8.1574,-8.1667,-8.1699,-8.1726,-8.1746,-8.1841,-8.1882,-8.1448,-8.1448,-8.1448,0,0,-8.1223,-8.1215,-8.1267,-8.1323,-8.1329,-8.1408,-8.1249,-8.1339,-8.1397,-8.1255,-8.1376,-8.1366,-8.1377,-8.1533,-8.1601,-8.1532,-8.1866,-8.175,-8.1772,-8.1777,-8.1864,-8.1906,-8.1942,-8.146,-8.1458,-8.1456,0,0,-8.1493,-8.1495,-8.1617,-8.1627,-8.1638,-8.1602,-8.1632,-8.1621,-8.1608,-8.173,-8.1625,-8.1693,-8.1801,-8.1813,-8.1834,-8.2114,-8.203,-8.2135,-8.2304,-8.2398,-8.2432,-8.2462,-8.2561,-8.2597,-8.2155,-8.2156,-8.2156,0,-8.1648,-8.1763,-8.1689,-8.1787,-8.1815,-8.1693,-8.1816,-8.1829,-8.1858,-8.188,-8.1803,-8.1937,-8.1936,-8.2093,-8.2162,-8.2183,-8.2214,-8.2133,-8.2433,-8.2462,-8.2489,-8.2582,-8.262,-8.2168,-8.2167,-8.2166,-8.2164,0,-8.1953,-8.2035,-8.2132,-8.2164,-8.2204,-8.2314,-8.2257,-8.2306,-8.225,-8.2222,-8.2348,-8.2343,-8.2395,-8.2429,-8.2374,-8.258,-8.2536,-8.2448,-8.2309,-8.2544,-8.263,-8.2665,-8.2186,-8.2182,-8.2178,-8.2175,0,0,-8.2339,-8.2332,-8.2368,-8.2382,-8.2388,-8.245,-8.2556,-8.2607,-8.265,-8.2676,-8.2761,-8.2858,-8.2777,-8.28,-8.2747,-8.283,-8.3051,-8.2731,-8.273,-8.2789,-8.3277,-8.3341,-8.3384,-8.2997,-8.3004,-8.3009,-8.3275,0,-8.2601,-8.278,-8.2718,-8.2901,-8.2976,-8.2863,-8.2955,-8.2969,-8.2948,-8.3008,-8.2983,-8.3052,-8.2941,-8.2954,-8.3032,-8.3008,-8.3147,-8.2988,-8.3075,-8.3079,-8.3073,-8.3429,-8.3496,-8.3747,-8.3308,-8.3314,-8.3318,0,-8.2929,-8.2969,-8.316,-8.3155,-8.3184,-8.3268,-8.3311,-8.337,-8.3385,-8.3363,-8.3392,-8.3322,-8.3425,-8.329,-8.3431,-8.3324,-8.3357,-8.3351,-8.3359,-8.3362,-8.3211,-8.3439,-8.3826,-8.3863,-8.3371,-8.3366,-8.3363,0,-8.319,-8.3292,-8.3419,-8.3435,-8.3432,-8.3494,-8.3496,-8.3502,-8.3538,-8.3577,-8.3599,-8.3649,-8.3676,-8.3717,-8.3662,-8.3569,-8.3812,-8.3671,-8.3796,-8.3797,-8.3848,-8.3845,-8.4244,-8.3875,-8.3875,-8.3874,-8.3873,0,-8.3487,-8.3608,-8.3536,-8.3614,-8.3746,-8.3676,-8.3809,-8.3798,-8.3806,-8.388,-8.3787,-8.3858,-8.3783,-8.3848,-8.3807,-8.393,-8.3943,-8.3928,-8.3915,-8.3935,-8.3937,-8.3952,-8.3932,-8.3884,-8.3882,-8.388,-8.3878,0,-8.3798,-8.3756,-8.3887,-8.3875,-8.3875,-8.3973,-8.3963,-8.4035,-8.4008,-8.4103,-8.4121,-8.408,-8.4151,-8.4102,-8.4174,-8.4146,-8.4307,-8.4271,-8.4302,-8.4291,-8.4418,-8.4406,-8.4837,-8.489,-8.4491,-8.4495,-8.4498,0,-8.3989,-8.408,-8.4079,-8.4122,-8.4131,-8.4202,-8.4238,-8.4174,-8.4216,-8.4241,-8.431,-8.4374,-8.4421,-8.4542,-8.4517,-8.4572,-8.4535,-8.4683,-8.4542,-8.456,-8.4535,-8.4529,-8.4538,-8.471,-8.4715,-8.4719,-8.4722,0,-8.4332,-8.4307,-8.4364,-8.4415,-8.4462,-8.4498,-8.4527,-8.4568,-8.4503,-8.4555,-8.4628,-8.4665,-8.474,-8.4805,-8.4851,-8.4852,-8.4777,-8.4768,-8.4798,-8.4818,-8.4831,-8.4824,-8.4377,-8.4757,-8.4753,-8.4751,-8.4749,-8.4747,-8.4587,-8.4662,-8.4674,-8.4741,-8.4757,-8.4787,-8.4854,-8.4837,-8.4897,-8.4953,-8.4912,-8.4999,-8.5013,-8.5067,-8.5079,-8.5146,-8.5085,-8.5131,-8.5142,-8.5154,-8.517,-8.4824,-8.5154,-8.5153,-8.5152,-8.5152,-8.5151,0,-8.4923,-8.4926,-8.4989,-8.5033,-8.5086,-8.5013,-8.5042,-8.5091,-8.5169,-8.5189,-8.5239,-8.5324,-8.5387,-8.537,-8.5427,-8.5484,-8.5451,-8.5501,-8.5494,-8.5496,-8.5222,-8.5188,-8.5527,-8.5527,-8.5527,-8.5527,-8.5527,-8.5526,-8.5104,-8.5227,-8.5205,-8.5336,-8.5338,-8.5423,-8.5446,-8.5473,-8.5489,-8.5588,-8.5641,-8.563,-8.5635,-8.5693,-8.5748,-8.5741,-8.5765,-8.5828,-8.5809,-8.5552,-8.5515,-8.5479,-8.5447,-8.5834,-8.5835,-8.6076,-8.6078,-8.608]},{"header":{"parameterUnit":"m.s-1","parameterCategory":1,"la1":30.2991,"la2":30.254,"lo1":-89.0895,"lo2":-89.0444,"dy":0.0017,"dx":0.0017,"nx":28,"ny":28,"refTime":"2024-09-03T03:00:00:Z","depth":0,"parameterNumber":3,"parameterNumberName":"V-component_of_WINDS"},"data":[0,0,0,0,0,0,0,0,0,0,0,0,0,0,0,0,0,0,0,0,0,0,0,0,0,0,0,0,0,0,0,0,0,0,0,0,0,0,0,0,0,0,0,0,0,0,0,0,0,0,0,0,0,0,0,0,0,0,0.7749,0.775,0,0.778,0.7781,0.7781,0.7772,0.7772,0.7771,0.777,0.7801,0.7803,0.7804,0,0,0,0,0,0,0,0,0,0,0,0,0,0.7684,0.7685,0.7749,0.775,0.775,0.778,0.7781,0.7781,0.7772,0.7772,0.7771,0.777,0.7801,0.7803,0.7804,0,0,0,0,0,0,0,0,0,0,0,0,0,0.7713,0.7685,0.7749,0.7749,0.775,0.778,0.7781,0.7781,0.7773,0.7772,0.7771,0.777,0.78,0.7802,0.7804,0.7836,0,0,0.7811,0.7812,0,0,0,0,0,0,0,0,0.7711,0.7715,0.7749,0.7749,0.775,0.7771,0.7769,0.78,0.7773,0.7764,0.777,0.7769,0.7792,0.7795,0.7803,0.7838,0.7839,0.7811,0.7812,0.7813,0.7814,0,0,0,0,0,0,0,0.7709,0.7714,0.7761,0.7749,0.775,0.7748,0.7751,0.7775,0.7783,0.7764,0.7764,0.7768,0.7792,0.7801,0.7803,0.784,0.7811,0.7813,0.7814,0.7815,0.7905,0.7906,0,0,0,0,0,0,0.7707,0.7712,0.776,0.7762,0.7728,0.775,0.7754,0.7765,0.7783,0.7784,0.7769,0.7767,0.7797,0.7801,0.7804,0.7845,0.7813,0.7815,0.7816,0.7904,0.7906,0.7907,0,0,0,0,0,0,0.7706,0.7711,0.7759,0.7737,0.7743,0.7752,0.7766,0.7766,0.7775,0.7786,0.7787,0.7776,0.7797,0.7801,0.7829,0.7846,0.7816,0.7818,0.7903,0.7905,0.7906,0.7924,0,0,0,0,0,0,0.7704,0.7711,0.7723,0.7738,0.7744,0.7783,0.7766,0.7768,0.7779,0.7777,0.7793,0.7794,0.7796,0.7826,0.7831,0.7848,0.782,0.7901,0.7904,0.7906,0.7922,0.7926,0.793,0,0,0,0,0,0.7701,0.7726,0.7723,0.7729,0.7759,0.7784,0.7788,0.779,0.778,0.7792,0.78,0.7794,0.7843,0.7829,0.7835,0.7852,0.79,0.7903,0.7905,0.792,0.7926,0.793,0,0,0,0,0,0,0.7711,0.7727,0.7725,0.7755,0.7768,0.7782,0.7798,0.7795,0.7811,0.7809,0.7811,0.7815,0.7844,0.7851,0.7835,0.7885,0.787,0.7874,0.788,0.7885,0.7888,0.7886,0.7822,0,0,0,0,0,0.7717,0.7736,0.7749,0.7774,0.7781,0.7788,0.7799,0.78,0.7814,0.7819,0.7828,0.7842,0.7861,0.7873,0.7891,0.7923,0.7928,0.7939,0.7942,0.7945,0.7949,0.7969,0.7975,0.7915,0.7915,0.7915,0,0,0.7729,0.774,0.7751,0.7776,0.7787,0.7807,0.7793,0.7814,0.7829,0.7822,0.785,0.7857,0.7873,0.7904,0.7918,0.791,0.7966,0.7949,0.7951,0.7953,0.7972,0.7978,0.7983,0.7917,0.7917,0.7916,0,0,0.7761,0.777,0.7793,0.7805,0.7822,0.7827,0.7833,0.7848,0.7853,0.7881,0.7877,0.7895,0.7926,0.7939,0.7949,0.7989,0.7984,0.7994,0.8014,0.8034,0.8039,0.8043,0.8058,0.8064,0.7997,0.7998,0.7998,0,0.7773,0.7803,0.7805,0.7828,0.784,0.7836,0.786,0.7871,0.7892,0.7901,0.7892,0.7934,0.7944,0.7979,0.7989,0.7997,0.8004,0.7992,0.8038,0.8042,0.8046,0.8061,0.8067,0.7999,0.7999,0.7998,0.7998,0,0.7818,0.7839,0.7856,0.7878,0.7892,0.7914,0.7922,0.7935,0.7936,0.7942,0.7972,0.7984,0.8005,0.8014,0.8013,0.8049,0.8045,0.8037,0.8022,0.8053,0.8067,0.8073,0.8,0.8,0.8,0.7999,0,0,0.7855,0.7881,0.7887,0.7898,0.7918,0.7934,0.7958,0.7979,0.7992,0.8007,0.8028,0.8056,0.805,0.8062,0.8064,0.8081,0.8114,0.8071,0.8072,0.808,0.8156,0.8163,0.8169,0.8111,0.8112,0.8113,0.8156,0,0.789,0.7932,0.7936,0.7974,0.7995,0.7993,0.8014,0.8028,0.8036,0.8055,0.8062,0.8083,0.8073,0.808,0.8097,0.8106,0.8129,0.8103,0.8132,0.8133,0.8129,0.8176,0.8182,0.8222,0.8161,0.8162,0.8163,0,0.7935,0.7954,0.7994,0.8013,0.8022,0.804,0.8062,0.808,0.8097,0.8102,0.8116,0.8116,0.8142,0.8126,0.8162,0.8144,0.8157,0.8163,0.8165,0.8168,0.815,0.8182,0.8234,0.824,0.8171,0.817,0.817,0,0.796,0.7995,0.8024,0.8034,0.8056,0.807,0.808,0.8096,0.811,0.8129,0.8138,0.816,0.8171,0.8188,0.8195,0.8182,0.8232,0.8216,0.8237,0.8237,0.8247,0.8247,0.8303,0.8254,0.8254,0.8253,0.8253,0,0.7999,0.8024,0.8036,0.8054,0.8083,0.8089,0.8117,0.8126,0.8142,0.8162,0.8161,0.8181,0.8188,0.8208,0.8214,0.8244,0.8249,0.8254,0.8255,0.8255,0.8254,0.8263,0.8261,0.8255,0.8255,0.8254,0.8254,0,0.8032,0.8041,0.8073,0.8092,0.8098,0.8119,0.8135,0.8154,0.8161,0.8188,0.8194,0.8207,0.8231,0.824,0.8269,0.8273,0.8309,0.8307,0.8303,0.8303,0.8325,0.8323,0.8389,0.8399,0.8342,0.8343,0.8343,0,0.8056,0.8075,0.8098,0.8112,0.8123,0.8145,0.816,0.8167,0.8182,0.8205,0.8221,0.8245,0.8266,0.8305,0.8317,0.8341,0.834,0.8362,0.8343,0.8343,0.8342,0.8341,0.8344,0.8365,0.8366,0.8366,0.8367,0,0.8099,0.8103,0.8124,0.8148,0.8165,0.8184,0.8202,0.8213,0.8223,0.8241,0.8267,0.8282,0.8314,0.8339,0.8363,0.8374,0.8373,0.8373,0.8379,0.8379,0.8377,0.838,0.8313,0.8371,0.8371,0.837,0.837,0.837,0.8129,0.8147,0.8167,0.8191,0.8205,0.8223,0.8242,0.8253,0.8275,0.8301,0.8304,0.8333,0.8352,0.8384,0.8397,0.842,0.8413,0.8422,0.8425,0.8427,0.843,0.8373,0.8424,0.8424,0.8424,0.8423,0.8423,0,0.8173,0.8186,0.8208,0.8234,0.8254,0.8252,0.8272,0.8289,0.8314,0.8332,0.8353,0.8384,0.8409,0.8424,0.8449,0.8465,0.8465,0.8472,0.8471,0.8474,0.8433,0.8425,0.8471,0.8471,0.8471,0.8471,0.8471,0.8471,0.8198,0.823,0.8237,0.8276,0.8289,0.8317,0.833,0.8347,0.8361,0.8396,0.8418,0.8427,0.8445,0.8472,0.8496,0.8499,0.8509,0.8517,0.852,0.8481,0.8476,0.8472,0.8465,0.8518,0.8519,0.856,0.856,0.856]}]]